| time (UTC) | temp F | wind direction | speed MPH | gust MPH | rain 1hr in | rain 24hr in | rain mn in | humidity % | barometer mb |
| 20260905215712 | 72 | 63 | 2.0 | 2.0 | 0.00 | 0.00 | 0.00 | 90 | 1017.9 |
| 20260905215208 | 72 | 67 | 2.0 | 2.0 | 0.00 | 0.00 | 0.00 | 90 | 1017.7 |
| 20260905214704 | 72 | 30 | 2.0 | 3.0 | 0.00 | 0.00 | 0.00 | 90 | 1017.8 |
| 20260905214159 | 72 | 47 | 0.0 | 1.0 | 0.00 | 0.00 | 0.00 | 90 | 1017.7 |
| 20260905213654 | 72 | 66 | 3.0 | 3.0 | 0.00 | 0.00 | 0.00 | 89 | 1017.8 |
| 20260905213150 | 72 | 58 | 3.0 | 3.0 | 0.00 | 0.00 | 0.00 | 89 | 1017.6 |
| 20260905212645 | 72 | 335 | 1.0 | 2.0 | 0.00 | 0.00 | 0.00 | 89 | 1017.6 |
| 20260905212144 | 73 | 60 | 2.0 | 3.0 | 0.00 | 0.00 | 0.00 | 88 | 1017.6 |
| 20260905211639 | 73 | 49 | 1.0 | 1.0 | 0.00 | 0.00 | 0.00 | 89 | 1017.7 |
| 20260905211134 | 73 | 41 | 0.0 | 1.0 | 0.00 | 0.00 | 0.00 | 89 | 1017.4 |
| 20260905210631 | 73 | 47 | 2.0 | 3.0 | 0.00 | 0.00 | 0.00 | 88 | 1017.4 |
| 20260905210126 | 73 | 71 | 1.0 | 1.0 | 0.00 | 0.00 | 0.00 | 88 | 1017.4 |
| 20260905205624 | 74 | 45 | 7.0 | 8.0 | 0.00 | 0.00 | 0.00 | 87 | 1017.7 |
| 20260905205119 | 74 | 85 | 4.0 | 7.0 | 0.00 | 0.00 | 0.00 | 87 | 1017.6 |
| 20260905204618 | 75 | 49 | 3.0 | 3.0 | 0.00 | 0.00 | 0.00 | 86 | 1017.6 |
| 20260905204113 | 74 | 306 | 3.0 | 5.0 | 0.00 | 0.00 | 0.00 | 87 | 1017.5 |
| 20260905203608 | 75 | 70 | 3.0 | 5.0 | 0.00 | 0.00 | 0.00 | 87 | 1017.4 |
| 20260905203103 | 75 | 68 | 3.0 | 3.0 | 0.00 | 0.00 | 0.00 | 85 | 1017.5 |
| 20260905202558 | 75 | 45 | 2.0 | 2.0 | 0.00 | 0.00 | 0.00 | 86 | 1017.4 |
| 20260905202048 | 76 | 48 | 3.0 | 5.0 | 0.00 | 0.00 | 0.00 | 85 | 1017.4 |
| 20260905201544 | 76 | 17 | 2.0 | 3.0 | 0.00 | 0.00 | 0.00 | 86 | 1017.7 |
| 20260905201043 | 76 | 46 | 3.0 | 3.0 | 0.00 | 0.00 | 0.00 | 86 | 1017.4 |
| 20260905200539 | 76 | 65 | 3.0 | 3.0 | 0.00 | 0.00 | 0.00 | 86 | 1017.4 |
| 20260905200038 | 76 | 30 | 2.0 | 2.0 | 0.00 | 0.00 | 0.00 | 86 | 1017.4 |
| 20260905195532 | 75 | 46 | 4.0 | 5.0 | 0.00 | 0.00 | 0.00 | 87 | 1017.4 |
| 20260905195028 | 74 | 50 | 1.0 | 1.0 | 0.00 | 0.00 | 0.00 | 89 | 1017.5 |
| 20260905194527 | 75 | 81 | 1.0 | 2.0 | 0.00 | 0.00 | 0.00 | 88 | 1017.6 |
| 20260905194021 | 76 | 71 | 3.0 | 5.0 | 0.00 | 0.00 | 0.00 | 88 | 1017.5 |
| 20260905193516 | 75 | 18 | 4.0 | 5.0 | 0.00 | 0.00 | 0.00 | 89 | 1017.5 |
| 20260905193011 | 76 | 49 | 4.0 | 6.0 | 0.00 | 0.00 | 0.00 | 88 | 1017.7 |
| 20260905192506 | 76 | 29 | 4.0 | 6.0 | 0.00 | 0.00 | 0.00 | 88 | 1017.6 |
| 20260905192003 | 75 | 74 | 3.0 | 3.0 | 0.00 | 0.00 | 0.00 | 89 | 1017.6 |
| 20260905191501 | 75 | 58 | 2.0 | 2.0 | 0.00 | 0.00 | 0.00 | 89 | 1017.6 |
| 20260905191001 | 75 | 98 | 2.0 | 3.0 | 0.00 | 0.00 | 0.00 | 89 | 1017.3 |
| 20260905190459 | 76 | 90 | 4.0 | 5.0 | 0.00 | 0.00 | 0.00 | 88 | 1017.4 |
| 20260905185957 | 77 | 38 | 4.0 | 7.0 | 0.00 | 0.00 | 0.00 | 86 | 1017.6 |
| 20260905185453 | 78 | 63 | 2.0 | 3.0 | 0.00 | 0.00 | 0.00 | 86 | 1017.7 |
| 20260905184951 | 77 | 43 | 3.0 | 5.0 | 0.00 | 0.00 | 0.00 | 87 | 1017.5 |
| 20260905184446 | 77 | 36 | 4.0 | 5.0 | 0.00 | 0.00 | 0.00 | 87 | 1017.5 |
| 20260905183945 | 77 | 67 | 5.0 | 7.0 | 0.00 | 0.00 | 0.00 | 86 | 1017.6 |
| 20260905183439 | 79 | 313 | 4.0 | 6.0 | 0.00 | 0.00 | 0.00 | 84 | 1017.5 |
| 20260905182935 | 78 | 78 | 1.0 | 2.0 | 0.00 | 0.00 | 0.00 | 83 | 1017.5 |
| 20260905182434 | 78 | 54 | 3.0 | 3.0 | 0.00 | 0.00 | 0.00 | 84 | 1017.3 |
| 20260905181929 | 78 | 14 | 3.0 | 3.0 | 0.00 | 0.00 | 0.00 | 84 | 1017.4 |
| 20260905181429 | 78 | 59 | 2.0 | 2.0 | 0.00 | 0.00 | 0.00 | 84 | 1017.6 |
| 20260905180929 | 78 | 39 | 3.0 | 5.0 | 0.00 | 0.00 | 0.00 | 84 | 1017.1 |
| 20260905180424 | 78 | 17 | 3.0 | 3.0 | 0.00 | 0.00 | 0.00 | 85 | 1017.5 |
| 20260905175918 | 78 | 13 | 4.0 | 6.0 | 0.00 | 0.00 | 0.00 | 84 | 1017.5 |
| 20260905175418 | 78 | 34 | 2.0 | 2.0 | 0.00 | 0.00 | 0.00 | 84 | 1017.4 |
| 20260905174913 | 78 | 46 | 5.0 | 6.0 | 0.00 | 0.00 | 0.00 | 84 | 1017.4 |
| 20260905174409 | 78 | 54 | 1.0 | 2.0 | 0.00 | 0.00 | 0.00 | 85 | 1017.4 |
| 20260905173904 | 78 | 65 | 3.0 | 3.0 | 0.00 | 0.00 | 0.00 | 84 | 1017.5 |
| 20260905173401 | 78 | 72 | 2.0 | 2.0 | 0.00 | 0.00 | 0.00 | 85 | 1017.5 |
| 20260905172855 | 77 | 23 | 0.0 | 1.0 | 0.00 | 0.00 | 0.00 | 86 | 1017.4 |
| 20260905172353 | 76 | 82 | 0.0 | 1.0 | 0.00 | 0.00 | 0.00 | 87 | 1017.6 |
| 20260905171849 | 76 | 65 | 1.0 | 2.0 | 0.00 | 0.00 | 0.00 | 87 | 1017.4 |
| 20260905171346 | 76 | 69 | 1.0 | 2.0 | 0.00 | 0.00 | 0.00 | 87 | 1017.5 |
| 20260905170842 | 76 | 28 | 0.0 | 1.0 | 0.00 | 0.00 | 0.00 | 87 | 1017.7 |
| 20260905170338 | 76 | 38 | 2.0 | 2.0 | 0.00 | 0.00 | 0.00 | 87 | 1017.6 |
| 20260905165837 | 76 | 45 | 2.0 | 3.0 | 0.00 | 0.00 | 0.00 | 87 | 1017.6 |
| 20260905165333 | 76 | 75 | 1.0 | 2.0 | 0.00 | 0.00 | 0.00 | 87 | 1017.7 |
| 20260905164832 | 77 | 74 | 3.0 | 3.0 | 0.00 | 0.00 | 0.00 | 86 | 1017.6 |
| 20260905164328 | 77 | 50 | 1.0 | 2.0 | 0.00 | 0.00 | 0.00 | 86 | 1017.8 |
| 20260905163823 | 77 | 39 | 2.0 | 2.0 | 0.00 | 0.00 | 0.00 | 86 | 1017.5 |
| 20260905163319 | 77 | 325 | 2.0 | 2.0 | 0.00 | 0.00 | 0.00 | 85 | 1017.5 |
| 20260905162815 | 76 | 43 | 1.0 | 1.0 | 0.00 | 0.00 | 0.00 | 86 | 1017.6 |
| 20260905162309 | 76 | 43 | 2.0 | 3.0 | 0.00 | 0.00 | 0.00 | 87 | 1017.4 |
| 20260905161804 | 76 | 54 | 3.0 | 5.0 | 0.00 | 0.00 | 0.00 | 87 | 1017.7 |
| 20260905161303 | 76 | 65 | 1.0 | 2.0 | 0.00 | 0.00 | 0.00 | 88 | 1017.8 |
| 20260905160801 | 75 | 9 | 3.0 | 3.0 | 0.00 | 0.00 | 0.00 | 89 | 1017.6 |
| 20260905160255 | 75 | 65 | 2.0 | 3.0 | 0.00 | 0.00 | 0.00 | 89 | 1017.5 |
| 20260905155750 | 75 | 68 | 4.0 | 5.0 | 0.00 | 0.00 | 0.00 | 88 | 1017.8 |
| 20260905155249 | 75 | 45 | 1.0 | 2.0 | 0.00 | 0.00 | 0.00 | 89 | 1017.6 |
| 20260905154743 | 75 | 46 | 1.0 | 2.0 | 0.00 | 0.00 | 0.00 | 90 | 1017.4 |
| 20260905154239 | 75 | 57 | 3.0 | 5.0 | 0.00 | 0.00 | 0.00 | 89 | 1017.6 |
| 20260905153735 | 75 | 48 | 1.0 | 2.0 | 0.00 | 0.00 | 0.00 | 89 | 1017.3 |
| 20260905153230 | 75 | 357 | 3.0 | 3.0 | 0.00 | 0.00 | 0.00 | 89 | 1017.4 |
| 20260905152725 | 75 | 41 | 2.0 | 3.0 | 0.00 | 0.00 | 0.00 | 88 | 1017.3 |
| 20260905152225 | 75 | 33 | 2.0 | 3.0 | 0.00 | 0.00 | 0.00 | 88 | 1017.4 |
| 20260905151725 | 76 | 55 | 4.0 | 5.0 | 0.00 | 0.00 | 0.00 | 87 | 1017.4 |
| 20260905151221 | 76 | 43 | 1.0 | 2.0 | 0.00 | 0.00 | 0.00 | 87 | 1017.2 |
| 20260905150721 | 76 | 58 | 3.0 | 3.0 | 0.00 | 0.00 | 0.00 | 87 | 1017.2 |
| 20260905150220 | 75 | 49 | 2.0 | 3.0 | 0.00 | 0.00 | 0.00 | 89 | 1017.2 |
| 20260905145718 | 75 | 79 | 1.0 | 1.0 | 0.00 | 0.00 | 0.00 | 89 | 1017.2 |
| 20260905145213 | 75 | 35 | 2.0 | 3.0 | 0.00 | 0.00 | 0.00 | 89 | 1017.2 |
| 20260905144712 | 74 | 86 | 0.0 | 0.0 | 0.00 | 0.00 | 0.00 | 90 | 1017.2 |
| 20260905144212 | 74 | 69 | 0.0 | 1.0 | 0.00 | 0.00 | 0.00 | 91 | 1016.8 |
| 20260905143712 | 73 | 62 | 1.0 | 2.0 | 0.00 | 0.00 | 0.00 | 92 | 1016.7 |
| 20260905143212 | 73 | 33 | 2.0 | 2.0 | 0.00 | 0.00 | 0.00 | 92 | 1016.9 |
| 20260905142710 | 73 | 350 | 5.0 | 7.0 | 0.00 | 0.00 | 0.00 | 92 | 1016.6 |
| 20260905142205 | 73 | 7 | 1.0 | 2.0 | 0.00 | 0.00 | 0.00 | 93 | 1016.7 |
| 20260905141701 | 73 | 46 | 1.0 | 1.0 | 0.00 | 0.00 | 0.00 | 94 | 1016.8 |
| 20260905141156 | 72 | 76 | 1.0 | 2.0 | 0.00 | 0.00 | 0.00 | 94 | 1017.0 |
| 20260905140651 | 72 | 25 | 3.0 | 6.0 | 0.00 | 0.00 | 0.00 | 95 | 1016.7 |
| 20260905140145 | 72 | 86 | 4.0 | 6.0 | 0.00 | 0.00 | 0.00 | 96 | 1016.8 |
| 20260905135640 | 71 | 62 | 3.0 | 3.0 | 0.00 | 0.00 | 0.00 | 96 | 1016.7 |
| 20260905135136 | 71 | 86 | 0.0 | 0.0 | 0.00 | 0.00 | 0.00 | 96 | 1016.9 |
| 20260905134630 | 71 | 52 | 3.0 | 3.0 | 0.00 | 0.00 | 0.00 | 96 | 1017.0 |
| 20260905134129 | 71 | 75 | 1.0 | 1.0 | 0.00 | 0.00 | 0.00 | 97 | 1016.7 |
| 20260905133625 | 71 | 343 | 2.0 | 2.0 | 0.00 | 0.00 | 0.00 | 97 | 1016.7 |
| 20260905133125 | 71 | 78 | 4.0 | 6.0 | 0.00 | 0.00 | 0.00 | 97 | 1016.8 |
| 20260905132624 | 71 | 27 | 1.0 | 2.0 | 0.00 | 0.00 | 0.00 | 97 | 1017.1 |
| 20260905132119 | 71 | 60 | 1.0 | 2.0 | 0.00 | 0.00 | 0.00 | 98 | 1017.1 |
| 20260905131614 | 71 | 57 | 0.0 | 2.0 | 0.00 | 0.00 | 0.00 | 98 | 1017.2 |
| 20260905131110 | 71 | 357 | 3.0 | 3.0 | 0.00 | 0.00 | 0.00 | 98 | 1016.8 |
| 20260905130609 | 71 | 5 | 2.0 | 2.0 | 0.00 | 0.00 | 0.00 | 98 | 1016.4 |
| 20260905130104 | 71 | 29 | 1.0 | 2.0 | 0.00 | 0.00 | 0.00 | 98 | 1016.5 |
| 20260905125603 | 71 | 3 | 2.0 | 2.0 | 0.00 | 0.00 | 0.00 | 98 | 1016.7 |
| 20260905125059 | 70 | 66 | 2.0 | 2.0 | 0.00 | 0.00 | 0.00 | 98 | 1016.5 |
| 20260905124555 | 70 | 82 | 1.0 | 2.0 | 0.00 | 0.00 | 0.00 | 98 | 1016.4 |
| 20260905124051 | 70 | 45 | 1.0 | 2.0 | 0.00 | 0.00 | 0.00 | 98 | 1016.2 |
| 20260905123546 | 70 | 22 | 2.0 | 5.0 | 0.00 | 0.00 | 0.00 | 98 | 1016.1 |
| 20260905123043 | 70 | 69 | 1.0 | 2.0 | 0.00 | 0.00 | 0.00 | 99 | 1016.3 |
| 20260905122543 | 70 | 76 | 0.0 | 0.0 | 0.00 | 0.00 | 0.00 | 98 | 1016.2 |
| 20260905122037 | 70 | 41 | 1.0 | 1.0 | 0.00 | 0.00 | 0.00 | 98 | 1015.9 |
| 20260905121532 | 70 | 25 | 2.0 | 3.0 | 0.00 | 0.00 | 0.00 | 98 | 1015.8 |
| 20260905121027 | 70 | 76 | 0.0 | 0.0 | 0.00 | 0.00 | 0.00 | 99 | 1015.8 |
| 20260905120527 | 70 | 59 | 1.0 | 1.0 | 0.00 | 0.00 | 0.00 | 98 | 1016.0 |
| 20260905120022 | 70 | 54 | 1.0 | 1.0 | 0.00 | 0.00 | 0.00 | 98 | 1016.0 |
| 20260905115521 | 70 | 10 | 2.0 | 2.0 | 0.00 | 0.00 | 0.00 | 98 | 1016.0 |
| 20260905115016 | 70 | 36 | 1.0 | 1.0 | 0.00 | 0.00 | 0.00 | 98 | 1015.7 |
| 20260905114515 | 69 | 50 | 3.0 | 3.0 | 0.00 | 0.00 | 0.00 | 98 | 1015.7 |
| 20260905114014 | 69 | 62 | 1.0 | 2.0 | 0.00 | 0.00 | 0.00 | 98 | 1015.9 |
| 20260905113510 | 69 | 68 | 2.0 | 2.0 | 0.00 | 0.00 | 0.00 | 98 | 1015.8 |
| 20260905113005 | 69 | 65 | 2.0 | 2.0 | 0.00 | 0.00 | 0.00 | 98 | 1015.4 |
| 20260905112500 | 69 | 81 | 2.0 | 3.0 | 0.00 | 0.00 | 0.00 | 98 | 1015.6 |
| 20260905111955 | 70 | 49 | 1.0 | 2.0 | 0.00 | 0.00 | 0.00 | 98 | 1015.7 |
| 20260905111449 | 70 | 350 | 3.0 | 3.0 | 0.00 | 0.00 | 0.00 | 98 | 1015.4 |
| 20260905110944 | 70 | 31 | 5.0 | 6.0 | 0.00 | 0.00 | 0.00 | 98 | 1015.3 |
| 20260905110443 | 70 | 1 | 3.0 | 6.0 | 0.00 | 0.00 | 0.00 | 98 | 1015.4 |
| 20260905105937 | 70 | 79 | 2.0 | 5.0 | 0.00 | 0.00 | 0.00 | 98 | 1015.2 |
| 20260905105432 | 70 | 30 | 4.0 | 5.0 | 0.00 | 0.00 | 0.00 | 97 | 1015.3 |
| 20260905104926 | 70 | 28 | 3.0 | 3.0 | 0.00 | 0.00 | 0.00 | 97 | 1015.4 |
| 20260905104422 | 70 | 58 | 1.0 | 2.0 | 0.00 | 0.00 | 0.00 | 98 | 1015.2 |
| 20260905103921 | 70 | 38 | 1.0 | 2.0 | 0.00 | 0.00 | 0.00 | 98 | 1015.1 |
| 20260905103412 | 70 | 80 | 2.0 | 3.0 | 0.00 | 0.00 | 0.00 | 98 | 1015.2 |
| 20260905102908 | 70 | 65 | 1.0 | 2.0 | 0.00 | 0.00 | 0.00 | 98 | 1015.2 |
| 20260905102404 | 70 | 28 | 3.0 | 5.0 | 0.00 | 0.00 | 0.00 | 98 | 1015.0 |
| 20260905101904 | 70 | 33 | 2.0 | 3.0 | 0.00 | 0.00 | 0.00 | 98 | 1015.1 |
| 20260905101402 | 70 | 65 | 3.0 | 3.0 | 0.00 | 0.00 | 0.00 | 98 | 1014.9 |
| 20260905100857 | 70 | 15 | 2.0 | 2.0 | 0.00 | 0.00 | 0.00 | 98 | 1015.0 |
| 20260905100353 | 70 | 42 | 1.0 | 2.0 | 0.00 | 0.00 | 0.00 | 98 | 1014.9 |
| 20260905095852 | 70 | 34 | 3.0 | 3.0 | 0.00 | 0.00 | 0.00 | 98 | 1015.1 |
| 20260905095347 | 70 | 50 | 2.0 | 2.0 | 0.00 | 0.00 | 0.00 | 98 | 1014.9 |
| 20260905094841 | 70 | 38 | 5.0 | 6.0 | 0.00 | 0.00 | 0.00 | 98 | 1014.9 |
| 20260905094337 | 70 | 47 | 0.0 | 1.0 | 0.00 | 0.00 | 0.00 | 98 | 1014.6 |
| 20260905093836 | 70 | 36 | 1.0 | 1.0 | 0.00 | 0.00 | 0.00 | 98 | 1014.8 |
| 20260905093332 | 70 | 44 | 0.0 | 1.0 | 0.00 | 0.00 | 0.00 | 98 | 1014.9 |
| 20260905092827 | 70 | 69 | 0.0 | 0.0 | 0.00 | 0.00 | 0.00 | 98 | 1014.8 |
| 20260905092322 | 70 | 58 | 0.0 | 0.0 | 0.00 | 0.00 | 0.00 | 98 | 1014.7 |
| 20260905091817 | 70 | 52 | 2.0 | 2.0 | 0.00 | 0.00 | 0.00 | 98 | 1014.5 |
| 20260905091317 | 70 | 53 | 0.0 | 2.0 | 0.00 | 0.00 | 0.00 | 98 | 1014.6 |
| 20260905090815 | 70 | 65 | 2.0 | 2.0 | 0.00 | 0.00 | 0.00 | 98 | 1014.8 |
| 20260905090311 | 70 | 60 | 0.0 | 0.0 | 0.00 | 0.00 | 0.00 | 98 | 1014.7 |
| 20260905085811 | 70 | 46 | 1.0 | 1.0 | 0.00 | 0.00 | 0.00 | 98 | 1014.7 |
| 20260905085310 | 70 | 43 | 0.0 | 0.0 | 0.00 | 0.00 | 0.00 | 98 | 1014.7 |
| 20260905084806 | 70 | 61 | 0.0 | 1.0 | 0.00 | 0.00 | 0.00 | 98 | 1014.7 |
| 20260905084300 | 70 | 56 | 2.0 | 2.0 | 0.00 | 0.00 | 0.00 | 98 | 1014.8 |
| 20260905083755 | 70 | 49 | 2.0 | 2.0 | 0.00 | 0.00 | 0.00 | 98 | 1014.8 |
| 20260905083251 | 70 | 74 | 0.0 | 0.0 | 0.00 | 0.00 | 0.00 | 98 | 1014.8 |
| 20260905082746 | 70 | 69 | 0.0 | 1.0 | 0.00 | 0.00 | 0.00 | 97 | 1014.6 |
| 20260905082242 | 70 | 5 | 1.0 | 1.0 | 0.00 | 0.00 | 0.00 | 97 | 1014.4 |
| 20260905081742 | 70 | 63 | 1.0 | 1.0 | 0.00 | 0.00 | 0.00 | 97 | 1014.7 |
| 20260905081237 | 70 | 11 | 1.0 | 1.0 | 0.00 | 0.00 | 0.00 | 97 | 1014.3 |
| 20260905080737 | 70 | 70 | 0.0 | 0.0 | 0.00 | 0.00 | 0.00 | 97 | 1014.6 |
| 20260905080237 | 70 | 33 | 1.0 | 1.0 | 0.00 | 0.00 | 0.00 | 97 | 1014.6 |
| 20260905075736 | 70 | 53 | 0.0 | 1.0 | 0.00 | 0.00 | 0.00 | 97 | 1014.6 |
| 20260905075235 | 70 | 69 | 1.0 | 1.0 | 0.00 | 0.00 | 0.00 | 97 | 1014.7 |
| 20260905074734 | 70 | 47 | 1.0 | 1.0 | 0.00 | 0.00 | 0.00 | 97 | 1014.8 |
| 20260905074230 | 70 | 64 | 0.0 | 0.0 | 0.00 | 0.00 | 0.00 | 97 | 1014.7 |
| 20260905073725 | 70 | 71 | 0.0 | 0.0 | 0.00 | 0.00 | 0.00 | 97 | 1014.5 |
| 20260905073221 | 70 | 69 | 0.0 | 0.0 | 0.00 | 0.00 | 0.00 | 97 | 1014.5 |
| 20260905072720 | 71 | 70 | 0.0 | 1.0 | 0.00 | 0.00 | 0.00 | 97 | 1014.7 |
| 20260905072216 | 71 | 67 | 0.0 | 0.0 | 0.00 | 0.00 | 0.00 | 97 | 1014.8 |
| 20260905071712 | 70 | 68 | 0.0 | 0.0 | 0.00 | 0.00 | 0.00 | 97 | 1014.4 |
| 20260905071208 | 70 | 92 | 0.0 | 0.0 | 0.00 | 0.00 | 0.00 | 97 | 1014.5 |
| 20260905070703 | 70 | 78 | 0.0 | 0.0 | 0.00 | 0.00 | 0.00 | 97 | 1014.5 |
| 20260905070159 | 71 | 77 | 0.0 | 0.0 | 0.00 | 0.00 | 0.00 | 96 | 1014.6 |
| 20260905065657 | 71 | 73 | 0.0 | 0.0 | 0.00 | 0.00 | 0.00 | 97 | 1014.6 |
| 20260905065151 | 71 | 74 | 0.0 | 0.0 | 0.00 | 0.00 | 0.00 | 97 | 1014.6 |
| 20260905064647 | 71 | 66 | 0.0 | 0.0 | 0.00 | 0.00 | 0.00 | 96 | 1014.8 |
| 20260905064143 | 71 | 71 | 1.0 | 1.0 | 0.00 | 0.00 | 0.00 | 97 | 1014.7 |
| 20260905063640 | 71 | 50 | 1.0 | 1.0 | 0.00 | 0.00 | 0.00 | 96 | 1014.6 |
| 20260905063138 | 71 | 64 | 0.0 | 0.0 | 0.00 | 0.00 | 0.00 | 96 | 1014.6 |
| 20260905062633 | 71 | 76 | 0.0 | 0.0 | 0.00 | 0.00 | 0.00 | 96 | 1014.6 |
| 20260905062132 | 71 | 72 | 0.0 | 0.0 | 0.00 | 0.00 | 0.00 | 96 | 1014.7 |
| 20260905061627 | 71 | 78 | 0.0 | 0.0 | 0.00 | 0.00 | 0.00 | 97 | 1014.9 |
| 20260905061126 | 71 | 76 | 1.0 | 1.0 | 0.00 | 0.00 | 0.00 | 97 | 1014.6 |
| 20260905060622 | 71 | 34 | 1.0 | 2.0 | 0.00 | 0.00 | 0.00 | 97 | 1015.0 |
| 20260905060119 | 71 | 11 | 2.0 | 3.0 | 0.00 | 0.00 | 0.00 | 97 | 1015.0 |
| 20260905055617 | 71 | 58 | 1.0 | 1.0 | 0.00 | 0.00 | 0.00 | 97 | 1014.5 |
| 20260905055112 | 71 | 64 | 0.0 | 0.0 | 0.00 | 0.00 | 0.00 | 97 | 1014.6 |
| 20260905054608 | 71 | 73 | 0.0 | 0.0 | 0.00 | 0.00 | 0.00 | 97 | 1014.7 |
| 20260905054103 | 71 | 84 | 0.0 | 0.0 | 0.00 | 0.00 | 0.00 | 97 | 1014.6 |
| 20260905053603 | 71 | 87 | 0.0 | 0.0 | 0.00 | 0.00 | 0.00 | 97 | 1014.5 |
| 20260905053058 | 71 | 88 | 0.0 | 0.0 | 0.00 | 0.00 | 0.00 | 96 | 1014.7 |
| 20260905052557 | 71 | 102 | 0.0 | 0.0 | 0.00 | 0.00 | 0.00 | 96 | 1014.5 |
| 20260905052052 | 71 | 79 | 0.0 | 0.0 | 0.00 | 0.00 | 0.00 | 95 | 1015.1 |
| 20260905051547 | 71 | 74 | 0.0 | 0.0 | 0.00 | 0.00 | 0.00 | 95 | 1015.1 |
| 20260905051044 | 71 | 80 | 0.0 | 0.0 | 0.00 | 0.00 | 0.00 | 95 | 1014.9 |
| 20260905050534 | 71 | 82 | 0.0 | 0.0 | 0.00 | 0.00 | 0.00 | 95 | 1014.9 |
| 20260905050031 | 72 | 83 | 0.0 | 0.0 | 0.00 | 0.00 | 0.00 | 95 | 1014.9 |
| 20260905045525 | 72 | 84 | 0.0 | 0.0 | 0.00 | 0.56 | 0.56 | 95 | 1015.0 |
| 20260905045021 | 72 | 83 | 0.0 | 0.0 | 0.00 | 0.56 | 0.56 | 95 | 1015.1 |
| 20260905044521 | 72 | 79 | 0.0 | 0.0 | 0.00 | 0.56 | 0.56 | 95 | 1015.1 |
| 20260905044021 | 72 | 74 | 0.0 | 0.0 | 0.00 | 0.56 | 0.56 | 95 | 1015.4 |
| 20260905043520 | 72 | 80 | 0.0 | 0.0 | 0.00 | 0.56 | 0.56 | 95 | 1015.0 |
| 20260905043010 | 72 | 74 | 0.0 | 0.0 | 0.00 | 0.56 | 0.56 | 95 | 1015.2 |
| 20260905042509 | 72 | 64 | 0.0 | 0.0 | 0.00 | 0.56 | 0.56 | 95 | 1015.6 |
| 20260905042004 | 72 | 73 | 1.0 | 1.0 | 0.00 | 0.56 | 0.56 | 96 | 1015.2 |
| 20260905041500 | 72 | 68 | 0.0 | 0.0 | 0.00 | 0.56 | 0.56 | 96 | 1015.2 |
| 20260905040955 | 72 | 76 | 0.0 | 0.0 | 0.00 | 0.56 | 0.56 | 96 | 1015.2 |
| 20260905040454 | 71 | 72 | 0.0 | 0.0 | 0.00 | 0.56 | 0.56 | 96 | 1015.4 |
| 20260905035953 | 71 | 61 | 0.0 | 0.0 | 0.00 | 0.56 | 0.56 | 96 | 1014.9 |
| 20260905035448 | 71 | 70 | 0.0 | 0.0 | 0.00 | 0.56 | 0.56 | 96 | 1015.0 |
| 20260905034946 | 71 | 76 | 0.0 | 0.0 | 0.00 | 0.56 | 0.56 | 96 | 1014.7 |
| 20260905034441 | 71 | 78 | 0.0 | 0.0 | 0.00 | 0.56 | 0.56 | 96 | 1014.9 |
| 20260905033940 | 71 | 71 | 0.0 | 0.0 | 0.00 | 0.56 | 0.56 | 96 | 1014.9 |
| 20260905033440 | 71 | 77 | 0.0 | 0.0 | 0.00 | 0.56 | 0.56 | 96 | 1014.8 |
| 20260905032934 | 71 | 52 | 0.0 | 0.0 | 0.00 | 0.56 | 0.56 | 96 | 1014.9 |
| 20260905032430 | 71 | 69 | 0.0 | 0.0 | 0.00 | 0.56 | 0.56 | 95 | 1014.9 |
| 20260905031925 | 71 | 73 | 0.0 | 0.0 | 0.00 | 0.56 | 0.56 | 95 | 1014.9 |
| 20260905031421 | 71 | 80 | 0.0 | 0.0 | 0.00 | 0.56 | 0.56 | 95 | 1015.3 |
| 20260905030916 | 72 | 82 | 0.0 | 0.0 | 0.00 | 0.56 | 0.56 | 95 | 1015.2 |
| 20260905030411 | 72 | 77 | 0.0 | 0.0 | 0.00 | 0.56 | 0.56 | 95 | 1015.6 |
| 20260905025910 | 72 | 73 | 0.0 | 0.0 | 0.00 | 0.56 | 0.56 | 94 | 1015.4 |
| 20260905025405 | 72 | 75 | 0.0 | 0.0 | 0.00 | 0.56 | 0.56 | 94 | 1015.6 |
| 20260905024902 | 72 | 84 | 0.0 | 0.0 | 0.00 | 0.56 | 0.56 | 94 | 1015.3 |
| 20260905024356 | 72 | 81 | 0.0 | 0.0 | 0.00 | 0.56 | 0.56 | 94 | 1015.4 |
| 20260905023852 | 72 | 83 | 0.0 | 0.0 | 0.00 | 0.56 | 0.56 | 94 | 1015.2 |
| 20260905023347 | 72 | 78 | 0.0 | 0.0 | 0.00 | 0.56 | 0.56 | 94 | 1015.2 |
| 20260905022846 | 73 | 81 | 0.0 | 0.0 | 0.00 | 0.56 | 0.56 | 94 | 1015.6 |
| 20260905022341 | 73 | 82 | 0.0 | 0.0 | 0.00 | 0.56 | 0.56 | 94 | 1015.3 |
| 20260905021836 | 73 | 86 | 0.0 | 0.0 | 0.00 | 0.56 | 0.56 | 93 | 1015.1 |
| 20260905021331 | 73 | 73 | 0.0 | 0.0 | 0.00 | 0.56 | 0.56 | 93 | 1015.1 |
| 20260905020827 | 73 | 76 | 0.0 | 0.0 | 0.00 | 0.56 | 0.56 | 93 | 1015.2 |
| 20260905020321 | 73 | 77 | 0.0 | 0.0 | 0.00 | 0.56 | 0.56 | 93 | 1015.0 |
| 20260905015820 | 73 | 72 | 0.0 | 0.0 | 0.00 | 0.56 | 0.56 | 93 | 1015.4 |
| 20260905015320 | 73 | 73 | 0.0 | 0.0 | 0.00 | 0.56 | 0.56 | 93 | 1015.1 |
| 20260905014819 | 73 | 80 | 0.0 | 0.0 | 0.00 | 0.56 | 0.56 | 93 | 1015.4 |
| 20260905014315 | 73 | 84 | 1.0 | 1.0 | 0.00 | 0.56 | 0.56 | 93 | 1015.3 |
| 20260905013810 | 73 | 75 | 1.0 | 1.0 | 0.00 | 0.56 | 0.56 | 93 | 1015.3 |
| 20260905013306 | 73 | 78 | 1.0 | 1.0 | 0.00 | 0.56 | 0.56 | 93 | 1015.4 |
| 20260905012801 | 73 | 80 | 0.0 | 0.0 | 0.00 | 0.56 | 0.56 | 93 | 1015.4 |
| 20260905012257 | 73 | 81 | 1.0 | 1.0 | 0.00 | 0.56 | 0.56 | 92 | 1015.3 |
| 20260905011753 | 73 | 81 | 0.0 | 0.0 | 0.00 | 0.56 | 0.56 | 92 | 1015.1 |
| 20260905011249 | 74 | 78 | 0.0 | 1.0 | 0.00 | 0.56 | 0.56 | 92 | 1015.0 |
| 20260905010743 | 74 | 84 | 0.0 | 0.0 | 0.00 | 0.56 | 0.56 | 92 | 1015.0 |
| 20260905010239 | 74 | 79 | 0.0 | 0.0 | 0.00 | 0.56 | 0.56 | 92 | 1015.1 |
| 20260905005736 | 74 | 70 | 0.0 | 0.0 | 0.00 | 0.56 | 0.56 | 92 | 1014.6 |
| 20260905005231 | 74 | 85 | 0.0 | 1.0 | 0.00 | 0.56 | 0.56 | 92 | 1014.5 |
| 20260905004730 | 74 | 80 | 0.0 | 0.0 | 0.00 | 0.56 | 0.56 | 91 | 1014.5 |
| 20260905004226 | 74 | 66 | 1.0 | 1.0 | 0.00 | 0.56 | 0.56 | 91 | 1014.5 |
| 20260905003725 | 75 | 68 | 1.0 | 2.0 | 0.00 | 0.56 | 0.56 | 91 | 1014.4 |
| 20260905003222 | 75 | 79 | 2.0 | 2.0 | 0.00 | 0.56 | 0.56 | 91 | 1014.4 |
| 20260905002717 | 75 | 77 | 0.0 | 0.0 | 0.00 | 0.56 | 0.56 | 90 | 1014.2 |
| 20260905002217 | 76 | 81 | 0.0 | 1.0 | 0.00 | 0.56 | 0.56 | 90 | 1014.2 |
| 20260905001712 | 76 | 78 | 1.0 | 1.0 | 0.00 | 0.56 | 0.56 | 89 | 1014.2 |
| 20260905001211 | 76 | 82 | 1.0 | 1.0 | 0.00 | 0.56 | 0.56 | 89 | 1014.4 |
| 20260905000706 | 76 | 84 | 0.0 | 0.0 | 0.00 | 0.56 | 0.56 | 88 | 1014.5 |
| 20260905000204 | 76 | 80 | 0.0 | 1.0 | 0.00 | 0.56 | 0.56 | 88 | 1014.2 |
| 20260904235702 | 77 | 75 | 0.0 | 0.0 | 0.00 | 0.56 | 0.56 | 88 | 1014.3 |
| 20260904235157 | 77 | 75 | 0.0 | 0.0 | 0.00 | 0.56 | 0.56 | 87 | 1014.2 |
| 20260904234652 | 77 | 63 | 0.0 | 0.0 | 0.00 | 0.56 | 0.56 | 87 | 1014.2 |
| 20260904234148 | 77 | 73 | 0.0 | 0.0 | 0.00 | 0.56 | 0.56 | 87 | 1014.2 |
| 20260904233643 | 77 | 73 | 0.0 | 0.0 | 0.00 | 0.56 | 0.56 | 88 | 1014.0 |
| 20260904233139 | 77 | 71 | 3.0 | 3.0 | 0.00 | 0.56 | 0.56 | 87 | 1013.9 |
| 20260904232635 | 77 | 65 | 0.0 | 1.0 | 0.00 | 0.56 | 0.56 | 87 | 1013.9 |
| 20260904232131 | 77 | 76 | 1.0 | 1.0 | 0.00 | 0.56 | 0.56 | 87 | 1013.8 |
| 20260904231626 | 77 | 65 | 1.0 | 1.0 | 0.00 | 0.56 | 0.56 | 87 | 1013.8 |
| 20260904231121 | 78 | 48 | 2.0 | 2.0 | 0.00 | 0.56 | 0.56 | 86 | 1013.7 |
| 20260904230621 | 77 | 54 | 0.0 | 1.0 | 0.00 | 0.56 | 0.56 | 86 | 1013.9 |
| 20260904230116 | 78 | 78 | 0.0 | 0.0 | 0.00 | 0.56 | 0.56 | 86 | 1014.0 |
| 20260904225614 | 77 | 59 | 0.0 | 0.0 | 0.00 | 0.56 | 0.56 | 86 | 1014.1 |
| 20260904225109 | 77 | 70 | 1.0 | 1.0 | 0.00 | 0.56 | 0.56 | 86 | 1013.8 |
| 20260904224603 | 78 | 77 | 1.0 | 1.0 | 0.00 | 0.56 | 0.56 | 85 | 1014.2 |
| 20260904224058 | 77 | 66 | 0.0 | 1.0 | 0.00 | 0.56 | 0.56 | 86 | 1014.0 |
| 20260904223557 | 78 | 42 | 1.0 | 1.0 | 0.00 | 0.56 | 0.56 | 85 | 1013.8 |
| 20260904223053 | 78 | 89 | 2.0 | 2.0 | 0.00 | 0.56 | 0.56 | 85 | 1014.2 |
| 20260904222549 | 78 | 86 | 2.0 | 3.0 | 0.00 | 0.56 | 0.56 | 84 | 1014.0 |
| 20260904222044 | 79 | 30 | 4.0 | 5.0 | 0.00 | 0.56 | 0.56 | 84 | 1013.8 |
| 20260904221538 | 78 | 15 | 3.0 | 5.0 | 0.00 | 0.56 | 0.56 | 84 | 1013.8 |
| 20260904221033 | 79 | 71 | 2.0 | 2.0 | 0.00 | 0.56 | 0.56 | 84 | 1013.9 |
| 20260904220533 | 79 | 64 | 1.0 | 2.0 | 0.00 | 0.56 | 0.56 | 83 | 1014.0 |